Location: Ammerl�gen
(47.2167°N, 9.6000°E)
Time: 03:16:10
(UTC+00:00)

Aureole 1 Rocket - Pass Details

Date: 21 April 2021
Orbit: 379 x 1372 km, 73.9° (Epoch: 16 May)

Event Time Altitude Azimuth Distance (km) Brightness Sun altitude
Exits shadow 22:22:54 45° 276° (W) 1,060 4.3 -29.2°
Maximum altitude 22:23:27 47° 295° (WNW) 1,014 4.3 -29.3°
Drops below altitude 10° 22:27:54 10° 10° (N) 2,034 6.5 -29.5°
Sets 22:29:57 0° 17° (NNE) 2,814 7.3 -29.5°
